Location: Unspecified
(48.5639°N, 13.4747°E)
Time: 22:40:43
(UTC+01:00)

ISS - Visible Passes

Search period start: 25 March 2017 00:00
Search period end: 04 April 2017 01:00
Orbit: 399 x 409 km, 51.6° (Epoch: 26 March)

Date Brightness Start Highest point End Pass type
(mag) Time Alt. Az. Time Alt. Az. Time Alt. Az.
27 Mar -1.6 20:17:54 10° SE 20:18:17 10° SE 20:18:27 10° SE visible
27 Mar -1.0 21:50:57 10° SW 21:51:11 12° SW 21:51:11 12° SW visible
28 Mar -3.1 20:58:53 10° SSW 21:01:51 33° SE 21:01:53 33° SE visible
29 Mar -2.3 20:07:08 10° S 20:09:38 20° SE 20:12:08 10° E visible
29 Mar -3.2 21:42:30 10° WSW 21:45:01 50° WSW 21:45:01 50° WSW visible
30 Mar -3.8 20:50:10 10° SW 20:53:23 62° SSE 20:55:14 23° ENE visible
30 Mar -1.2 22:26:45 10° W 22:27:54 20° WNW 22:27:54 20° WNW visible
31 Mar -3.4 21:34:13 10° W 21:37:27 60° NNW 21:37:56 52° NNE visible
01 Apr -3.8 20:41:43 10° WSW 20:44:59 80° NNW 20:47:49 13° ENE visible
01 Apr -1.9 22:18:30 10° WNW 22:20:29 30° NW 22:20:29 30° NW visible
02 Apr -3.1 21:25:57 10° W 21:29:08 48° N 21:30:15 32° NE visible
02 Apr -0.5 23:02:38 10° WNW 23:02:54 12° WNW 23:02:54 12° WNW visible
03 Apr -3.3 20:33:22 10° W 20:36:36 56° NNW 20:39:50 10° ENE visible
03 Apr -2.5 22:10:09 10° WNW 22:12:35 40° NW 22:12:35 40° NW visible
